Terug naar catalogus

STARLINK-30784

ActiefCommunicatieVLEO
NORAD 58156·PAYLOAD·🇺🇸 United States

Gelanceerd Oct 29, 2023 vanaf Vandenberg Space Force Base

Loading…

Volgende Passages (komende 24 uur)

TLE

VersSource: CelesTrak SupGP

Epoch: Sep 14, 2026, 22:06 UTC

1 58156C 23166G   26257.92131944  .00029327  00000+0  86682-3 0  2570
2 58156  53.1595  60.1074 0001226  83.2438 113.1356 15.34363433    18

Volg STARLINK-30784 in realtime met AllMySat

Download on the App Store